Showing default

IRIDIUM 137, 43076

Orbit data source: Space-Track

IRIDIUM 137, 43076 is a payload satellite owned by Iridium (US) in LEO that was launched on Sat, 23 Dec 2017 UTC via an FALCON 9 launch vehicle from the Air Force Western Test Range (AFWTR). Payloads include a variety of satellites, spacecraft, and rockets equipped with specific instruments for various scientific and technological missions. These include communications satellites like Starlink; space stations such as the ISS; scientific satellites like the Hubble; Earth observation satellites from companies like Planet Labs, Umbra, and HawkEye 360; GPS; miniature CubeSats for education and research; and military/defense satellites.

Loading next visibility...
IRIDIUM 137 details
Identifier
43076, 2017-083G
Orbit
LEO
Last TLE update13 hours ago
Origin
Flag of USIridium (US)
ManufacturerOATK SSG Gilbert
MissionOperational Commercial Communications
Bus & MotorELITEBUS, Unknown motor
Mass860 kg wet, 700 kg dry
Launch date (UTC)
2017-12-23 (7 years ago)
Launch vehicle
FALCON 9
Launch site
Air Force Western Test Range (AFWTR)
Object type
Payload
Rocket body
Debris
Shape & HBRTrap Box + 2 Pan, 9.4 m
Radar Cross Section14.423 m², Large (>1 m²)

Expand to show TLE details & history

TLE from 13 hours ago
0 IRIDIUM 137
1 43076U 17083G   24361.01429525  .00000060  00000-0  14222-4 0  9994
2 43076  86.3991 187.0520 0002311 102.0886 258.0569 14.34217774367037
Epoch: 2024-12-26T00:20Z
Definitive object data (Epoch: 2024-12-26T00:20:35.109Z)
Latitude-0.00002°
Longitude86.90594°
Altitude781.061 km
Speed7.463 km/s
True Right ascension12h 28m 12s
True Declination0° 00' 00"
Sunlit
Object was in daylight at TLE epoch
Visualization TLE readout
Latitude-57.4302°
Longitude81.05384°
Altitude801.524 km
Speed7.451 km/s
Apparent Right ascension03h 08m 12s
Apparent Declination-82° 27' 43"
Sunlit
Object is in daylight
Visualization observer readout
Local Sidereal Time12:49:56
Azimuth186.147° SSW
Elevation-45.97°
Doppler factor1
Orbital elements
Apogee altitude776.285 km
Perigee altitude772.979 km
Semi-major axis7,152.769 km
Eccentricity0.0002311
Inclination86.3991°
RAAN187.052°
Arg. of periapsis102.0886°
True anomaly258.03099°
Mean anomaly258.0569°
Eccentric anomaly258.04395°
Mean motion3.58783 °/min
BSTAR0.000014222
Orbital period100.34 mins
Loading maneuver chart data...
Loading historical data...
Loading historical data...
Loading historical data...
Loading historical data...
Loading historical data...
Loading historical data...
Loading historical data...

IRIDIUM 137 Visibility forecast

Observer location: undefined°, undefined

Span
Click to sort rows by Start time (UTC) header in descending order
Start Az.
Max El. time (UTC)
Max El. Az.
Max El.
End time (UTC)
End Az.
9 mins2024-12-26 13:51:16.008Z211.63° SW2024-12-26 13:55:16.008Z267.918° W31.71°2024-12-26 14:00:16.008Z345.603° N
8 mins2024-12-27 00:22:16.008Z12.76° NNE2024-12-27 00:26:16.008Z93.405° ESE38°2024-12-27 00:30:16.008Z157.778° S
5 mins2024-12-27 02:04:16.008Z307.45° NW2024-12-27 02:06:16.008Z280.969° WNW16.341°2024-12-27 02:09:16.008Z243.923° WSW
8 mins2024-12-27 13:18:16.008Z190.624° SSW2024-12-27 13:22:16.008Z299.364° NW43.418°2024-12-27 13:26:16.008Z357.02° N
|